Total_Precipitation_Accumulation
0.13 0.09 0.05 0.02 0.03 0.05 0.03 0.03 0.02 0.00 0.00 0.00 0.00 0.00 0.00 0.00 0.00 0.00 0.00 0.00 0.00 0.00
0.27 0.17 0.16 0.11 0.05 0.06 0.06 0.04 0.01 0.00 0.00 0.00 0.00 0.00 0.00 0.00 0.00 0.00 0.00 0.00 0.00 0.00
0.35 0.41 0.28 0.19 0.19 0.11 0.08 0.04 0.04 0.02 0.00 0.00 0.00 0.00 0.00 0.00 0.00 0.00 0.00 0.00 0.00 0.00
0.32 0.42 0.40 0.28 0.30 0.26 0.22 0.14 0.06 0.06 0.07 0.04 0.02 0.02 0.01 0.01 0.01 0.01 0.00 0.00 0.00 0.00
0.25 0.30 0.26 0.28 0.29 0.31 0.33 0.30 0.21 0.14 0.15 0.16 0.13 0.10 0.08 0.05 0.03 0.03 0.04 0.04 0.02 0.02
0.10 0.19 0.25 0.25 0.27 0.27 0.29 0.35 0.37 0.31 0.23 0.22 0.23 0.20 0.17 0.14 0.11 0.10 0.10 0.09 0.07 0.06
0.09 0.15 0.21 0.33 0.40 0.33 0.28 0.31 0.36 0.35 0.34 0.31 0.25 0.20 0.18 0.19 0.16 0.13 0.10 0.07 0.05 0.05
0.09 0.10 0.14 0.19 0.26 0.28 0.27 0.20 0.24 0.29 0.29 0.28 0.24 0.19 0.15 0.11 0.09 0.08 0.07 0.05 0.03 0.01
0.03 0.10 0.13 0.13 0.18 0.29 0.30 0.31 0.30 0.23 0.18 0.14 0.12 0.16 0.14 0.09 0.05 0.03 0.02 0.01 0.00 0.00
0.00 0.00 0.01 0.02 0.03 0.03 0.05 0.07 0.08 0.07 0.09 0.11 0.11 0.13 0.10 0.08 0.02 0.00 0.00 0.00 0.00 0.00
0.00 0.00 0.00 0.00 0.00 0.00 0.00 0.00 0.01 0.03 0.04 0.04 0.05 0.08 0.05 0.03 0.01 0.00 0.00 0.00 0.00 0.00
0.00 0.00 0.00 0.00 0.00 0.00 0.00 0.00 0.00 0.00 0.01 0.01 0.01 0.02 0.00 0.00 0.00 0.00 0.00 0.00 0.00 0.00
0.00 0.00 0.00 0.00 0.00 0.00 0.00 0.00 0.00 0.00 0.00 0.00 0.00 0.00 0.00 0.00 0.00 0.00 0.00 0.00 0.01 0.02
0.00 0.00 0.00 0.00 0.00 0.00 0.00 0.00 0.00 0.00 0.00 0.00 0.00 0.00 0.01 0.02 0.01 0.02 0.03 0.03 0.03 0.02